カタログに戻る

SHIYAN 4

SY-4

運用中科学SSO
NORAD 37931·PAYLOAD·🇨🇳 China

打ち上げ Nov 20, 2011 から Jiuquan Satellite Launch Center

Loading…

次のパス (今後24時間)

TLE

最新Source: Space-Track

元期: Sep 14, 2026, 07:11 UTC

1 37931U 11068B   26257.29990784  .00000082  00000-0  47977-4 0  9997
2 37931  98.6941 276.3955 0021855 242.9979 127.7615 14.31155215771644

AllMySatでSHIYAN 4をリアルタイム追跡

Download on the App Store